year,month,rank_POA,nstocks,ret_vw
1967,1,1,96,10.0776
1967,1,2,78,7.4908
1967,1,3,76,6.4163
1967,1,4,79,7.6284
1967,1,5,81,9.7501
1967,1,6,81,10.5446
1967,1,7,85,7.2981
1967,1,8,85,11.7088
1967,1,9,97,7.1246
1967,1,10,106,11.7541
1967,2,1,96,-0.3517
1967,2,2,78,2.7402
1967,2,3,76,-1.0323
1967,2,4,79,0.9731
1967,2,5,81,2.4923
1967,2,6,81,0.4674
1967,2,7,85,2.2741
1967,2,8,85,1.4880
1967,2,9,97,-0.2096
1967,2,10,106,3.2376
1967,3,1,96,3.9328
1967,3,2,78,4.7533
1967,3,3,76,4.3572
1967,3,4,79,3.0123
1967,3,5,81,3.5481
1967,3,6,81,5.1244
1967,3,7,85,7.9518
1967,3,8,85,6.4339
1967,3,9,97,4.8641
1967,3,10,106,4.9668
1967,4,1,96,4.3899
1967,4,2,78,3.3681
1967,4,3,76,2.6610
1967,4,4,79,3.2233
1967,4,5,81,5.8224
1967,4,6,81,5.2878
1967,4,7,85,5.0491
1967,4,8,85,7.5050
1967,4,9,97,7.3442
1967,4,10,106,8.2240
1967,5,1,96,-5.0980
1967,5,2,78,-4.4381
1967,5,3,76,-3.5201
1967,5,4,79,-2.9748
1967,5,5,81,-3.9264
1967,5,6,81,-5.5190
1967,5,7,85,-4.4845
1967,5,8,85,-4.1374
1967,5,9,97,-3.4242
1967,5,10,106,-5.8741
1967,6,1,95,2.6070
1967,6,2,77,3.9404
1967,6,3,75,0.7820
1967,6,4,79,0.1382
1967,6,5,81,2.8754
1967,6,6,81,0.3115
1967,6,7,85,4.6536
1967,6,8,85,3.6064
1967,6,9,97,3.9903
1967,6,10,106,5.3034
1967,7,1,124,8.6838
1967,7,2,91,0.1992
1967,7,3,85,4.7917
1967,7,4,86,7.9639
1967,7,5,80,4.9374
1967,7,6,86,4.6401
1967,7,7,93,8.7315
1967,7,8,95,5.6161
1967,7,9,100,5.8248
1967,7,10,115,5.0281
1967,8,1,124,-1.6476
1967,8,2,91,-1.1980
1967,8,3,85,-1.0282
1967,8,4,86,-0.7196
1967,8,5,80,-1.3587
1967,8,6,86,0.3378
1967,8,7,93,0.2775
1967,8,8,95,0.2758
1967,8,9,99,0.8410
1967,8,10,115,-2.0214
1967,9,1,124,0.2478
1967,9,2,91,4.1582
1967,9,3,84,3.7849
1967,9,4,86,3.1389
1967,9,5,80,5.3811
1967,9,6,86,3.0593
1967,9,7,93,2.8383
1967,9,8,95,5.5628
1967,9,9,99,5.4986
1967,9,10,115,2.1661
1967,10,1,124,-5.6270
1967,10,2,91,0.2129
1967,10,3,84,0.6556
1967,10,4,86,-5.5258
1967,10,5,80,-3.2797
1967,10,6,86,-0.7730
1967,10,7,93,-4.5258
1967,10,8,95,-2.3196
1967,10,9,99,-2.8122
1967,10,10,115,-1.8045
1967,11,1,123,0.5018
1967,11,2,91,1.1860
1967,11,3,84,0.4955
1967,11,4,86,-0.5435
1967,11,5,80,1.9034
1967,11,6,86,1.2088
1967,11,7,93,-0.3592
1967,11,8,95,-1.5383
1967,11,9,99,2.6623
1967,11,10,115,2.6354
1967,12,1,123,6.2169
1967,12,2,91,2.2455
1967,12,3,84,2.6023
1967,12,4,86,3.3722
1967,12,5,79,4.0327
1967,12,6,86,4.8519
1967,12,7,93,1.0858
1967,12,8,95,1.3742
1967,12,9,99,1.5169
1967,12,10,115,1.2584
1968,1,1,124,-4.5518
1968,1,2,90,-1.2657
1968,1,3,84,-3.6384
1968,1,4,86,-4.2876
1968,1,5,79,-5.4113
1968,1,6,86,-7.5904
1968,1,7,93,-6.5761
1968,1,8,95,-7.0248
1968,1,9,99,-6.3110
1968,1,10,115,-9.0427
1968,2,1,124,-4.1686
1968,2,2,90,-2.6764
1968,2,3,83,-1.2983
1968,2,4,86,-2.6513
1968,2,5,79,-3.6867
1968,2,6,85,-4.2207
1968,2,7,93,-4.4299
1968,2,8,95,-5.2410
1968,2,9,99,-3.9402
1968,2,10,115,-7.3294
1968,3,1,124,-0.6108
1968,3,2,91,1.4010
1968,3,3,83,0.4633
1968,3,4,86,0.1165
1968,3,5,79,3.6965
1968,3,6,85,2.4470
1968,3,7,93,-0.0861
1968,3,8,95,0.1308
1968,3,9,99,0.6389
1968,3,10,115,2.4378
1968,4,1,124,8.2187
1968,4,2,91,6.3903
1968,4,3,83,7.4853
1968,4,4,86,8.6496
1968,4,5,79,12.1133
1968,4,6,85,10.6882
1968,4,7,93,13.3777
1968,4,8,95,12.2822
1968,4,9,99,14.3911
1968,4,10,115,13.9197
1968,5,1,124,5.1440
1968,5,2,91,2.4487
1968,5,3,83,1.1002
1968,5,4,86,0.9519
1968,5,5,79,3.7383
1968,5,6,85,2.5567
1968,5,7,92,0.1784
1968,5,8,95,3.8118
1968,5,9,99,3.4717
1968,5,10,115,3.3071
1968,6,1,124,0.4242
1968,6,2,91,1.2616
1968,6,3,83,0.5264
1968,6,4,86,0.6333
1968,6,5,79,0.5860
1968,6,6,85,1.6804
1968,6,7,92,0.1263
1968,6,8,95,-1.6402
1968,6,9,99,-0.1064
1968,6,10,115,-2.9805
1968,7,1,162,-0.9972
1968,7,2,105,-2.2454
1968,7,3,98,-2.0085
1968,7,4,110,3.0171
1968,7,5,101,-1.7321
1968,7,6,109,-5.3105
1968,7,7,101,-5.7065
1968,7,8,99,-4.8443
1968,7,9,118,-6.8421
1968,7,10,133,-8.3908
1968,8,1,162,1.1759
1968,8,2,104,0.9057
1968,8,3,98,2.8769
1968,8,4,110,2.0765
1968,8,5,101,3.0203
1968,8,6,109,1.3261
1968,8,7,101,1.2609
1968,8,8,99,2.8924
1968,8,9,118,2.0237
1968,8,10,133,0.3204
1968,9,1,162,9.6250
1968,9,2,104,2.7005
1968,9,3,97,5.7767
1968,9,4,110,5.2625
1968,9,5,101,2.3553
1968,9,6,109,5.1918
1968,9,7,101,5.2851
1968,9,8,99,3.4257
1968,9,9,118,4.3458
1968,9,10,133,5.7047
1968,10,1,162,0.2790
1968,10,2,104,-1.4472
1968,10,3,97,3.1650
1968,10,4,110,2.8137
1968,10,5,101,2.4340
1968,10,6,109,0.4338
1968,10,7,101,-0.2090
1968,10,8,99,-1.2664
1968,10,9,118,0.0616
1968,10,10,133,-0.1887
1968,11,1,162,3.3102
1968,11,2,104,7.3357
1968,11,3,98,4.7266
1968,11,4,110,3.7805
1968,11,5,101,5.7724
1968,11,6,109,6.9431
1968,11,7,101,4.3146
1968,11,8,99,5.0997
1968,11,9,118,6.6964
1968,11,10,133,9.4953
1968,12,1,162,-1.2405
1968,12,2,104,-5.4039
1968,12,3,98,-3.4990
1968,12,4,110,-3.2332
1968,12,5,101,-4.1163
1968,12,6,109,-2.3608
1968,12,7,101,-2.8674
1968,12,8,99,-4.4487
1968,12,9,118,-2.6497
1968,12,10,133,-3.4654
1969,1,1,162,-0.4367
1969,1,2,104,-0.8233
1969,1,3,98,-0.8765
1969,1,4,110,-0.8647
1969,1,5,101,-1.8754
1969,1,6,109,-1.5677
1969,1,7,101,0.2327
1969,1,8,99,-1.6839
1969,1,9,118,-3.8215
1969,1,10,133,-2.7874
1969,2,1,162,-7.0681
1969,2,2,103,-3.7142
1969,2,3,98,-5.6737
1969,2,4,110,-4.2642
1969,2,5,101,-3.3703
1969,2,6,109,-5.6973
1969,2,7,101,-5.0336
1969,2,8,99,-4.3521
1969,2,9,118,-6.6038
1969,2,10,133,-9.9902
1969,3,1,162,1.9505
1969,3,2,103,3.4587
1969,3,3,98,4.3419
1969,3,4,109,6.4151
1969,3,5,101,3.9564
1969,3,6,109,2.9826
1969,3,7,101,3.7206
1969,3,8,99,-0.2145
1969,3,9,118,2.5037
1969,3,10,133,2.2431
1969,4,1,161,1.8556
1969,4,2,103,4.5315
1969,4,3,98,1.0704
1969,4,4,109,0.8719
1969,4,5,101,0.8701
1969,4,6,108,1.7643
1969,4,7,101,3.7511
1969,4,8,98,3.6464
1969,4,9,117,1.5334
1969,4,10,133,2.3108
1969,5,1,161,1.0365
1969,5,2,102,0.0108
1969,5,3,98,0.1943
1969,5,4,110,2.1107
1969,5,5,101,1.2418
1969,5,6,108,1.7754
1969,5,7,101,-0.2109
1969,5,8,98,-0.9051
1969,5,9,117,0.0884
1969,5,10,133,-2.9986
1969,6,1,162,-11.9773
1969,6,2,102,-1.9245
1969,6,3,98,-6.1692
1969,6,4,110,-8.2071
1969,6,5,101,-8.1391
1969,6,6,109,-5.6775
1969,6,7,101,-5.4598
1969,6,8,98,-4.2558
1969,6,9,118,-8.5911
1969,6,10,133,-8.5996
1969,7,1,147,-10.4021
1969,7,2,110,-5.0444
1969,7,3,116,-6.7585
1969,7,4,110,-7.3060
1969,7,5,109,-6.8831
1969,7,6,109,-3.9139
1969,7,7,112,-5.6838
1969,7,8,127,-8.3050
1969,7,9,133,-10.1268
1969,7,10,165,-9.5951
1969,8,1,147,5.0384
1969,8,2,110,3.9585
1969,8,3,116,5.5132
1969,8,4,110,6.2773
1969,8,5,109,4.6985
1969,8,6,109,6.5664
1969,8,7,112,5.1028
1969,8,8,127,4.5327
1969,8,9,133,8.4793
1969,8,10,165,8.4866
1969,9,1,147,-4.0806
1969,9,2,111,-2.3753
1969,9,3,116,-3.8960
1969,9,4,110,-4.6721
1969,9,5,109,-2.5413
1969,9,6,109,0.4791
1969,9,7,112,-0.4373
1969,9,8,127,-2.2755
1969,9,9,133,-0.0783
1969,9,10,164,-2.6739
1969,10,1,147,6.9391
1969,10,2,111,3.0719
1969,10,3,116,4.0986
1969,10,4,109,3.0170
1969,10,5,109,5.6513
1969,10,6,108,6.7287
1969,10,7,112,6.1596
1969,10,8,127,7.2192
1969,10,9,133,8.7737
1969,10,10,164,7.9896
1969,11,1,147,-5.9169
1969,11,2,111,-1.5059
1969,11,3,116,-3.8024
1969,11,4,109,-3.6462
1969,11,5,109,-3.1067
1969,11,6,108,-1.0374
1969,11,7,112,-2.7595
1969,11,8,127,-3.9821
1969,11,9,133,-2.7213
1969,11,10,165,-4.8647
1969,12,1,147,-5.8380
1969,12,2,111,-2.7184
1969,12,3,116,-2.2444
1969,12,4,109,-2.1568
1969,12,5,109,0.0012
1969,12,6,109,0.1860
1969,12,7,112,-0.1399
1969,12,8,127,-2.1933
1969,12,9,133,-3.6896
1969,12,10,165,-3.6337
1970,1,1,147,-7.7385
1970,1,2,111,-6.9029
1970,1,3,116,-7.7511
1970,1,4,109,-9.0560
1970,1,5,109,-8.5813
1970,1,6,109,-8.3393
1970,1,7,112,-5.4423
1970,1,8,127,-8.8756
1970,1,9,132,-8.8042
1970,1,10,165,-10.1073
1970,2,1,147,10.2305
1970,2,2,111,5.6548
1970,2,3,116,3.0050
1970,2,4,109,4.2845
1970,2,5,109,7.5059
1970,2,6,109,5.5793
1970,2,7,112,4.9856
1970,2,8,127,5.4467
1970,2,9,132,5.8677
1970,2,10,165,3.5404
1970,3,1,147,0.3400
1970,3,2,111,0.3728
1970,3,3,116,-0.5638
1970,3,4,110,0.9435
1970,3,5,109,0.8562
1970,3,6,109,-3.4279
1970,3,7,112,-0.1190
1970,3,8,127,-0.1558
1970,3,9,133,-2.9921
1970,3,10,165,-2.7512
1970,4,1,147,-11.8385
1970,4,2,111,-10.0312
1970,4,3,116,-8.3974
1970,4,4,110,-7.8960
1970,4,5,109,-8.1956
1970,4,6,109,-9.5876
1970,4,7,112,-10.6246
1970,4,8,127,-12.3725
1970,4,9,133,-16.5300
1970,4,10,165,-16.6404
1970,5,1,147,-5.6392
1970,5,2,111,-5.6367
1970,5,3,116,-4.1245
1970,5,4,109,-2.1557
1970,5,5,109,-6.0791
1970,5,6,109,-7.6570
1970,5,7,112,-7.7293
1970,5,8,127,-10.7936
1970,5,9,133,-10.5479
1970,5,10,165,-9.5959
1970,6,1,147,-7.7521
1970,6,2,111,-7.3034
1970,6,3,116,-4.5831
1970,6,4,109,-3.3119
1970,6,5,109,-1.9604
1970,6,6,109,-5.5954
1970,6,7,112,-4.1464
1970,6,8,127,-5.5357
1970,6,9,132,-7.3282
1970,6,10,165,-7.9145
1970,7,1,155,10.1659
1970,7,2,132,10.4776
1970,7,3,126,7.6016
1970,7,4,125,6.6945
1970,7,5,123,5.4673
1970,7,6,121,7.1336
1970,7,7,121,9.8664
1970,7,8,131,1.6383
1970,7,9,131,4.4158
1970,7,10,210,6.7151
1970,8,1,155,5.3930
1970,8,2,132,3.9760
1970,8,3,126,6.6326
1970,8,4,125,3.6758
1970,8,5,123,3.4721
1970,8,6,121,3.5815
1970,8,7,121,3.4247
1970,8,8,131,6.2716
1970,8,9,131,7.3969
1970,8,10,209,9.3306
1970,9,1,155,6.4948
1970,9,2,132,1.3075
1970,9,3,126,3.4589
1970,9,4,125,3.7037
1970,9,5,123,3.7936
1970,9,6,121,4.6221
1970,9,7,121,6.9185
1970,9,8,131,8.7820
1970,9,9,130,9.1706
1970,9,10,209,15.8104
1970,10,1,155,-2.8463
1970,10,2,132,-3.3028
1970,10,3,126,0.8530
1970,10,4,125,-1.2840
1970,10,5,123,-1.2629
1970,10,6,121,-0.0830
1970,10,7,121,-1.5762
1970,10,8,131,-3.0204
1970,10,9,130,-4.5296
1970,10,10,210,-8.7887
1970,11,1,155,3.5170
1970,11,2,131,5.8536
1970,11,3,126,5.3967
1970,11,4,125,4.4089
1970,11,5,123,5.2061
1970,11,6,121,3.7933
1970,11,7,121,6.5266
1970,11,8,131,4.2093
1970,11,9,130,1.5171
1970,11,10,210,2.1151
1970,12,1,155,6.6688
1970,12,2,131,6.5146
1970,12,3,126,4.5678
1970,12,4,125,6.4504
1970,12,5,123,6.3510
1970,12,6,121,7.3782
1970,12,7,121,5.3762
1970,12,8,131,8.1877
1970,12,9,130,7.5626
1970,12,10,210,5.6515
1971,1,1,155,11.4491
1971,1,2,130,8.2162
1971,1,3,126,1.5786
1971,1,4,125,3.5791
1971,1,5,123,4.0279
1971,1,6,121,6.2642
1971,1,7,121,4.9391
1971,1,8,131,6.8081
1971,1,9,130,8.4457
1971,1,10,210,11.4889
1971,2,1,155,4.9268
1971,2,2,130,-2.0400
1971,2,3,126,2.9391
1971,2,4,125,3.1658
1971,2,5,123,1.3299
1971,2,6,121,2.2030
1971,2,7,121,1.5688
1971,2,8,131,2.4112
1971,2,9,130,1.7189
1971,2,10,210,2.7698
1971,3,1,155,2.1789
1971,3,2,130,2.1900
1971,3,3,126,4.2432
1971,3,4,125,4.6241
1971,3,5,123,5.0800
1971,3,6,121,5.9386
1971,3,7,120,3.7560
1971,3,8,131,5.9459
1971,3,9,129,6.3511
1971,3,10,210,5.6990
1971,4,1,155,8.7755
1971,4,2,130,2.1164
1971,4,3,126,3.7732
1971,4,4,125,5.1043
1971,4,5,123,3.2064
1971,4,6,121,4.1994
1971,4,7,120,5.4507
1971,4,8,131,5.8151
1971,4,9,129,5.0327
1971,4,10,210,4.4149
1971,5,1,155,-3.3183
1971,5,2,130,-4.5304
1971,5,3,126,-5.2065
1971,5,4,125,-4.4681
1971,5,5,123,-1.4007
1971,5,6,121,-2.3412
1971,5,7,120,-1.3883
1971,5,8,131,-2.3202
1971,5,9,130,-4.1658
1971,5,10,210,-4.9641
1971,6,1,154,-0.5794
1971,6,2,130,0.5343
1971,6,3,126,-0.9463
1971,6,4,125,-0.4460
1971,6,5,123,0.3529
1971,6,6,121,2.5497
1971,6,7,119,0.3431
1971,6,8,131,1.9837
1971,6,9,130,-0.6215
1971,6,10,209,-1.5399
1971,7,1,190,-4.3471
1971,7,2,162,-5.7847
1971,7,3,148,-4.6227
1971,7,4,129,-4.6493
1971,7,5,135,-1.8941
1971,7,6,130,-5.7532
1971,7,7,134,-2.3321
1971,7,8,138,-4.5583
1971,7,9,167,-2.9076
1971,7,10,204,-8.1241
1971,8,1,190,8.6525
1971,8,2,162,7.4150
1971,8,3,148,4.3404
1971,8,4,129,3.3465
1971,8,5,135,-0.6598
1971,8,6,130,6.3837
1971,8,7,134,5.3001
1971,8,8,138,5.2874
1971,8,9,166,3.6418
1971,8,10,204,6.5564
1971,9,1,190,-0.8760
1971,9,2,162,-0.6450
1971,9,3,148,-2.0086
1971,9,4,129,-0.0566
1971,9,5,135,-1.0506
1971,9,6,130,0.3235
1971,9,7,134,-0.4576
1971,9,8,138,0.1628
1971,9,9,166,0.8783
1971,9,10,204,-0.1320
1971,10,1,190,-5.8424
1971,10,2,162,-6.0624
1971,10,3,148,-3.7020
1971,10,4,129,-3.3630
1971,10,5,135,-5.0739
1971,10,6,130,-5.3182
1971,10,7,134,-4.4440
1971,10,8,138,-4.0259
1971,10,9,166,-3.7053
1971,10,10,204,-7.0015
1971,11,1,190,0.1125
1971,11,2,162,-0.6816
1971,11,3,148,0.0285
1971,11,4,129,0.0520
1971,11,5,135,-0.7084
1971,11,6,130,1.0191
1971,11,7,134,1.0260
1971,11,8,138,0.6813
1971,11,9,166,-0.2950
1971,11,10,204,-1.9075
1971,12,1,190,6.6817
1971,12,2,162,9.7749
1971,12,3,148,9.0107
1971,12,4,129,8.9241
1971,12,5,135,9.3098
1971,12,6,130,10.0088
1971,12,7,134,8.9094
1971,12,8,138,10.3020
1971,12,9,166,9.3963
1971,12,10,204,12.4514
1972,1,1,190,3.8516
1972,1,2,162,4.1138
1972,1,3,147,1.1647
1972,1,4,129,4.8704
1972,1,5,135,0.7505
1972,1,6,130,3.1406
1972,1,7,134,2.3163
1972,1,8,138,2.8162
1972,1,9,166,1.5020
1972,1,10,204,5.7411
1972,2,1,188,2.0874
1972,2,2,162,1.2384
1972,2,3,147,1.4427
1972,2,4,129,2.5506
1972,2,5,135,3.3360
1972,2,6,130,4.4914
1972,2,7,134,5.2499
1972,2,8,138,6.8667
1972,2,9,166,5.6860
1972,2,10,204,2.6461
1972,3,1,188,3.0648
1972,3,2,161,-0.9538
1972,3,3,146,-0.9274
1972,3,4,129,1.9349
1972,3,5,135,-3.1057
1972,3,6,130,2.8097
1972,3,7,134,1.0570
1972,3,8,138,0.2518
1972,3,9,166,1.2202
1972,3,10,204,0.1913
1972,4,1,188,-0.8707
1972,4,2,161,0.4967
1972,4,3,146,0.7925
1972,4,4,129,0.4796
1972,4,5,135,-0.1632
1972,4,6,130,0.5199
1972,4,7,134,2.0986
1972,4,8,138,0.7505
1972,4,9,165,2.7573
1972,4,10,204,2.1069
1972,5,1,188,-1.6638
1972,5,2,161,-0.8076
1972,5,3,146,0.6475
1972,5,4,129,3.1119
1972,5,5,135,3.8927
1972,5,6,130,2.3836
1972,5,7,134,2.2965
1972,5,8,138,2.8413
1972,5,9,165,3.5929
1972,5,10,203,0.4524
1972,6,1,187,-3.5476
1972,6,2,161,-4.0993
1972,6,3,146,-3.2121
1972,6,4,129,-1.8960
1972,6,5,135,-2.3005
1972,6,6,130,-0.7632
1972,6,7,134,-1.3581
1972,6,8,138,-2.2265
1972,6,9,165,0.4100
1972,6,10,202,-3.4081
1972,7,1,184,-3.0901
1972,7,2,177,-2.0425
1972,7,3,160,0.7847
1972,7,4,159,-0.0128
1972,7,5,157,-1.2028
1972,7,6,163,-1.8124
1972,7,7,154,1.7657
1972,7,8,158,0.8692
1972,7,9,164,-0.2735
1972,7,10,218,-3.2156
1972,8,1,183,3.1534
1972,8,2,177,4.2987
1972,8,3,160,6.2094
1972,8,4,159,5.0192
1972,8,5,156,6.2426
1972,8,6,162,7.8466
1972,8,7,154,-1.1439
1972,8,8,158,1.5694
1972,8,9,163,-0.3020
1972,8,10,218,-1.9542
1972,9,1,183,-4.5794
1972,9,2,178,-4.7116
1972,9,3,159,-1.2737
1972,9,4,157,-0.3312
1972,9,5,156,-0.8692
1972,9,6,160,-0.8828
1972,9,7,152,1.3689
1972,9,8,158,-1.1428
1972,9,9,162,-0.3812
1972,9,10,218,-2.6832
1972,10,1,183,0.8565
1972,10,2,178,0.4483
1972,10,3,159,2.2244
1972,10,4,157,-0.4917
1972,10,5,156,-0.5111
1972,10,6,160,0.8544
1972,10,7,152,1.6336
1972,10,8,158,0.7831
1972,10,9,161,1.7075
1972,10,10,218,-3.3014
1972,11,1,183,7.9170
1972,11,2,178,6.8090
1972,11,3,160,5.3061
1972,11,4,156,5.4939
1972,11,5,156,7.6079
1972,11,6,160,5.1907
1972,11,7,152,1.1842
1972,11,8,158,3.5819
1972,11,9,161,3.2258
1972,11,10,218,8.7418
1972,12,1,182,-3.6000
1972,12,2,178,0.0745
1972,12,3,160,0.3888
1972,12,4,156,2.2162
1972,12,5,156,-0.3241
1972,12,6,160,2.3458
1972,12,7,152,3.5311
1972,12,8,158,2.2124
1972,12,9,162,1.8537
1972,12,10,217,-0.9419
1973,1,1,182,-9.8595
1973,1,2,178,-3.3716
1973,1,3,160,-1.2108
1973,1,4,156,1.1723
1973,1,5,156,-2.3460
1973,1,6,161,0.3519
1973,1,7,152,-2.7554
1973,1,8,158,-3.4643
1973,1,9,161,-3.7021
1973,1,10,216,-8.0388
1973,2,1,182,-7.0338
1973,2,2,177,-6.0025
1973,2,3,160,-3.6878
1973,2,4,155,-2.8614
1973,2,5,156,-5.0603
1973,2,6,161,-7.7365
1973,2,7,152,-2.0880
1973,2,8,158,-4.3204
1973,2,9,161,-1.7454
1973,2,10,216,-8.7236
1973,3,1,182,1.5679
1973,3,2,177,0.0513
1973,3,3,159,-0.7075
1973,3,4,155,-0.0267
1973,3,5,156,0.8644
1973,3,6,160,1.6767
1973,3,7,152,0.2256
1973,3,8,157,-3.0055
1973,3,9,160,-2.3915
1973,3,10,215,-3.5080
1973,4,1,182,-6.8092
1973,4,2,175,-4.0635
1973,4,3,158,-3.9300
1973,4,4,155,-3.4628
1973,4,5,156,-2.2058
1973,4,6,160,-4.2550
1973,4,7,152,-5.5410
1973,4,8,156,-6.4057
1973,4,9,160,-6.5024
1973,4,10,215,-9.8566
1973,5,1,182,-8.9503
1973,5,2,175,-3.9260
1973,5,3,158,0.4594
1973,5,4,154,-2.5818
1973,5,5,156,-2.4738
1973,5,6,160,-4.9460
1973,5,7,152,-0.2028
1973,5,8,156,-0.0709
1973,5,9,160,-0.4257
1973,5,10,215,-9.4852
1973,6,1,181,-5.7990
1973,6,2,175,-2.3486
1973,6,3,158,0.5541
1973,6,4,151,-0.5765
1973,6,5,154,-0.1479
1973,6,6,160,-1.5427
1973,6,7,151,-0.2958
1973,6,8,156,-2.0517
1973,6,9,159,-1.2623
1973,6,10,212,-5.9068
1973,7,1,236,7.8722
1973,7,2,162,4.5547
1973,7,3,160,1.9947
1973,7,4,150,3.3897
1973,7,5,157,4.4441
1973,7,6,169,6.6055
1973,7,7,149,5.7511
1973,7,8,181,10.6972
1973,7,9,185,11.7997
1973,7,10,241,15.7793
1973,8,1,236,-3.4846
1973,8,2,161,-0.8038
1973,8,3,159,-3.0353
1973,8,4,150,-3.1462
1973,8,5,157,-4.7224
1973,8,6,168,-4.8568
1973,8,7,149,-3.4167
1973,8,8,180,-3.8257
1973,8,9,184,-3.7921
1973,8,10,239,-1.3705
1973,9,1,236,11.0061
1973,9,2,161,6.6991
1973,9,3,159,-0.3428
1973,9,4,149,8.0401
1973,9,5,155,8.8507
1973,9,6,168,3.4811
1973,9,7,149,2.7942
1973,9,8,180,5.8644
1973,9,9,184,8.0433
1973,9,10,239,9.4491
1973,10,1,235,2.4860
1973,10,2,161,4.2989
1973,10,3,159,2.2360
1973,10,4,149,0.0215
1973,10,5,155,-0.9327
1973,10,6,169,0.7781
1973,10,7,149,-2.5466
1973,10,8,179,-0.9302
1973,10,9,185,-2.6602
1973,10,10,237,-1.3144
1973,11,1,234,-14.2598
1973,11,2,161,-10.5954
1973,11,3,159,-7.7679
1973,11,4,149,-12.5155
1973,11,5,156,-15.5318
1973,11,6,168,-11.6548
1973,11,7,149,-10.9831
1973,11,8,179,-13.4312
1973,11,9,185,-16.2481
1973,11,10,236,-22.4580
1973,12,1,234,0.2070
1973,12,2,159,7.1057
1973,12,3,158,1.6502
1973,12,4,150,2.5763
1973,12,5,155,4.7617
1973,12,6,168,-1.1969
1973,12,7,149,-2.6909
1973,12,8,179,-1.9923
1973,12,9,185,0.3538
1973,12,10,236,2.4208
1974,1,1,235,5.4102
1974,1,2,159,-4.3068
1974,1,3,158,-0.0582
1974,1,4,149,-0.2049
1974,1,5,155,1.3641
1974,1,6,168,-1.3831
1974,1,7,149,0.3273
1974,1,8,179,0.4415
1974,1,9,185,2.9131
1974,1,10,235,6.8019
1974,2,1,234,2.3344
1974,2,2,158,0.1933
1974,2,3,158,1.6924
1974,2,4,149,-0.3394
1974,2,5,154,0.1683
1974,2,6,168,-2.1599
1974,2,7,149,-0.3239
1974,2,8,178,-0.2967
1974,2,9,183,0.8993
1974,2,10,230,2.0708
1974,3,1,233,-3.0499
1974,3,2,158,-1.9860
1974,3,3,157,-2.1946
1974,3,4,150,-1.8322
1974,3,5,153,-1.4683
1974,3,6,168,-0.9680
1974,3,7,148,-1.7254
1974,3,8,176,-2.0548
1974,3,9,182,-3.4962
1974,3,10,230,-3.5042
1974,4,1,232,-3.7455
1974,4,2,158,-5.4626
1974,4,3,157,-3.4322
1974,4,4,150,-3.1832
1974,4,5,153,-2.2259
1974,4,6,168,-2.1905
1974,4,7,148,-4.0424
1974,4,8,176,-3.5255
1974,4,9,182,-2.7184
1974,4,10,229,-4.7327
1974,5,1,231,-8.9136
1974,5,2,157,-2.9563
1974,5,3,157,-5.5623
1974,5,4,149,-2.7045
1974,5,5,153,-5.1216
1974,5,6,168,-0.5409
1974,5,7,148,-0.2021
1974,5,8,176,-0.0698
1974,5,9,181,0.6626
1974,5,10,226,-7.7038
1974,6,1,230,-1.9984
1974,6,2,156,-0.3247
1974,6,3,157,-0.1156
1974,6,4,149,-2.5455
1974,6,5,153,-1.9155
1974,6,6,168,-0.3329
1974,6,7,148,-0.5750
1974,6,8,176,-1.3775
1974,6,9,180,-2.1120
1974,6,10,225,-4.4552
1974,7,1,271,-4.5506
1974,7,2,200,-6.5591
1974,7,3,199,-5.4213
1974,7,4,196,-5.1088
1974,7,5,206,-8.8242
1974,7,6,222,-10.3873
1974,7,7,213,-11.5310
1974,7,8,199,-12.0336
1974,7,9,282,-10.4717
1974,7,10,321,-8.6977
1974,8,1,268,-5.3697
1974,8,2,199,-3.5420
1974,8,3,198,-7.3987
1974,8,4,196,-9.3010
1974,8,5,205,-9.8840
1974,8,6,221,-8.1940
1974,8,7,212,-9.6864
1974,8,8,199,-13.2047
1974,8,9,280,-9.8610
1974,8,10,321,-9.1827
1974,9,1,265,-8.9074
1974,9,2,195,-7.6341
1974,9,3,198,-12.8704
1974,9,4,195,-11.3508
1974,9,5,205,-12.8949
1974,9,6,219,-14.0499
1974,9,7,208,-13.6901
1974,9,8,197,-13.1951
1974,9,9,278,-15.4809
1974,9,10,318,-14.8168
1974,10,1,262,14.5034
1974,10,2,195,18.2432
1974,10,3,198,18.1512
1974,10,4,194,12.1786
1974,10,5,205,13.1606
1974,10,6,219,23.1206
1974,10,7,208,22.2687
1974,10,8,197,13.4977
1974,10,9,277,16.7804
1974,10,10,318,12.9734
1974,11,1,262,-4.1790
1974,11,2,197,-3.3124
1974,11,3,197,-5.4885
1974,11,4,195,-5.5254
1974,11,5,205,-5.0911
1974,11,6,218,-0.8695
1974,11,7,206,-4.6166
1974,11,8,195,-5.3711
1974,11,9,277,-6.1154
1974,11,10,318,-4.2125
1974,12,1,259,-4.3148
1974,12,2,196,-0.4293
1974,12,3,197,-2.6672
1974,12,4,194,-1.8380
1974,12,5,205,-2.1929
1974,12,6,218,-3.8502
1974,12,7,207,-2.6379
1974,12,8,195,-3.6346
1974,12,9,277,-6.9213
1974,12,10,318,-3.8168
1975,1,1,262,21.1070
1975,1,2,195,6.6148
1975,1,3,196,13.1958
1975,1,4,193,14.8308
1975,1,5,204,18.2222
1975,1,6,217,7.0434
1975,1,7,207,7.6889
1975,1,8,196,21.0913
1975,1,9,276,21.1438
1975,1,10,317,16.8874
1975,2,1,263,6.1573
1975,2,2,194,5.0124
1975,2,3,196,7.8539
1975,2,4,192,5.3466
1975,2,5,204,7.4361
1975,2,6,217,12.4079
1975,2,7,207,9.0695
1975,2,8,196,6.8723
1975,2,9,276,5.8205
1975,2,10,314,7.2030
1975,3,1,264,8.6681
1975,3,2,195,1.2679
1975,3,3,196,0.8208
1975,3,4,192,2.8490
1975,3,5,202,5.3433
1975,3,6,217,3.6964
1975,3,7,207,2.9025
1975,3,8,196,6.9394
1975,3,9,275,7.0149
1975,3,10,313,9.1264
1975,4,1,263,8.9409
1975,4,2,195,3.7553
1975,4,3,196,5.6171
1975,4,4,192,9.0451
1975,4,5,202,5.8804
1975,4,6,217,1.4217
1975,4,7,207,5.0990
1975,4,8,196,1.2301
1975,4,9,275,5.7237
1975,4,10,311,8.8591
1975,5,1,263,3.1180
1975,5,2,195,5.1735
1975,5,3,196,4.9565
1975,5,4,190,5.2047
1975,5,5,201,4.5917
1975,5,6,215,6.1643
1975,5,7,206,6.7579
1975,5,8,195,4.5736
1975,5,9,274,6.4106
1975,5,10,310,5.3360
1975,6,1,262,6.6649
1975,6,2,196,5.1966
1975,6,3,197,2.4357
1975,6,4,189,7.6249
1975,6,5,201,2.6152
1975,6,6,214,4.4469
1975,6,7,206,3.3234
1975,6,8,193,6.0878
1975,6,9,274,6.7574
1975,6,10,309,5.7084
1975,7,1,350,-4.8413
1975,7,2,287,-4.0148
1975,7,3,263,-4.8258
1975,7,4,258,-4.8835
1975,7,5,280,-6.4097
1975,7,6,235,-6.5032
1975,7,7,267,-7.3917
1975,7,8,339,-9.2155
1975,7,9,330,-6.8062
1975,7,10,420,-4.6739
1975,8,1,350,-4.8097
1975,8,2,286,-2.8879
1975,8,3,263,-1.0230
1975,8,4,257,-0.7624
1975,8,5,279,-1.6785
1975,8,6,235,-1.2598
1975,8,7,265,-2.0959
1975,8,8,339,-2.0724
1975,8,9,330,-3.7322
1975,8,10,419,-5.0824
1975,9,1,350,-5.5058
1975,9,2,286,-1.3105
1975,9,3,261,-1.3688
1975,9,4,256,-3.0518
1975,9,5,279,-4.3929
1975,9,6,235,-3.8513
1975,9,7,263,-3.5593
1975,9,8,336,-5.7085
1975,9,9,331,-2.9291
1975,9,10,418,-4.8678
1975,10,1,349,5.1503
1975,10,2,286,5.1741
1975,10,3,261,5.8408
1975,10,4,255,2.4404
1975,10,5,278,6.7694
1975,10,6,234,5.4048
1975,10,7,262,7.1454
1975,10,8,335,9.3931
1975,10,9,330,7.7205
1975,10,10,417,4.0911
1975,11,1,346,4.8261
1975,11,2,283,3.9463
1975,11,3,262,1.7981
1975,11,4,253,1.7172
1975,11,5,278,3.5977
1975,11,6,234,2.6846
1975,11,7,262,3.6844
1975,11,8,335,3.7291
1975,11,9,329,3.6868
1975,11,10,418,1.7829
1975,12,1,345,-0.6688
1975,12,2,281,-0.0031
1975,12,3,259,0.0675
1975,12,4,252,0.1435
1975,12,5,279,-0.6145
1975,12,6,234,-1.8677
1975,12,7,264,-1.8449
1975,12,8,332,-4.4365
1975,12,9,329,-1.4256
1975,12,10,417,-1.9920
1976,1,1,330,21.3689
1976,1,2,274,9.8054
1976,1,3,253,12.5533
1976,1,4,249,14.1654
1976,1,5,273,13.0950
1976,1,6,231,12.5709
1976,1,7,259,12.3720
1976,1,8,326,10.6254
1976,1,9,324,12.1559
1976,1,10,406,19.6031
1976,2,1,328,6.9191
1976,2,2,274,2.9048
1976,2,3,254,0.4257
1976,2,4,251,-1.2508
1976,2,5,271,0.2005
1976,2,6,232,-1.6498
1976,2,7,259,0.9353
1976,2,8,326,-1.3959
1976,2,9,322,0.5108
1976,2,10,404,4.6740
1976,3,1,337,0.3062
1976,3,2,278,1.5361
1976,3,3,258,2.8624